Zurück zum Katalog

COSMOS 1275 DEB

AktivPO
NORAD 42113·DEBRIS·🇷🇺 Russia

Gestartet Jun 4, 1981 von Plesetsk Cosmodrome

Loading…

Nächste Überflüge (nächste 24 Stunden)

TLE

AktuellSource: Space-Track

Epoche: Sep 13, 2026, 05:25 UTC

1 42113U 81053PZ  26256.22581801  .00001099  00000-0  10069-2 0  9993
2 42113  82.7502 168.9046 0194065  81.9943  69.8515 13.73989575640089

Verfolge COSMOS 1275 DEB in Echtzeit mit AllMySat

Download on the App Store